CW2969 Weather Reports


time (UTC)temp
F
wind
direction
speed
knots
gust
knots
rain 1hr
in
rain 24hr
in
rain mn
in
humidity
%
barometer
mb
20260506230011 68 333 1.7 7.8 0.00 0.00 0.00 73 1010.7
20260506225511 68 30 1.7 7.0 0.00 0.00 0.00 73 1010.7
20260506225011 69 336 7.0 7.0 0.00 0.00 0.00 72 1010.5
20260506224511 69 360 4.3 10.4 0.00 0.00 0.00 72 1010.4
20260506224011 69 355 7.8 10.4 0.00 0.00 0.00 72 1010.5
20260506223511 69 336 2.6 10.4 0.00 0.00 0.00 71 1010.4
20260506222511 71 128 3.5 7.0 0.00 0.00 0.00 71 1010.2
20260506222011 71 344 3.5 7.0 0.00 0.00 0.00 71 1010.2
20260506221511 71 111 0.9 10.4 0.00 0.00 0.00 70 1010.3
20260506221010 71 253 6.1 10.4 0.00 0.00 0.00 71 1010.1
20260506215510 71 54 2.6 4.3 0.00 0.00 0.00 71 1010.1
20260506215011 72 342 3.5 7.0 0.00 0.00 0.00 70 1010.2
20260506214510 72 167 5.2 7.0 0.00 0.00 0.00 70 1010.2
20260506214010 73 121 0.9 7.0 0.00 0.00 0.00 69 1010.1
20260506213511 74 329 1.7 7.8 0.00 0.00 0.00 69 1010.0
20260506213010 74 46 0.0 11.3 0.00 0.00 0.00 69 1009.9
20260506212010 75 355 0.9 9.6 0.00 0.00 0.00 70 1009.9
20260506211511 75 333 3.5 9.6 0.00 0.00 0.00 70 1009.7
20260506211010 75 200 0.9 10.4 0.00 0.00 0.00 70 1009.8
20260506210510 75 338 1.7 10.4 0.00 0.00 0.00 71 1009.7
20260506210010 75 114 5.2 7.8 0.00 0.00 0.00 71 1009.9
20260506205510 75 360 3.5 8.7 0.00 0.00 0.00 72 1010.0
20260506205010 75 348 2.6 8.7 0.00 0.00 0.00 73 1010.1
20260506204510 74 5 7.8 7.8 0.00 0.00 0.00 73 1010.3
20260506204010 74 55 2.6 7.8 0.00 0.00 0.00 74 1010.3
20260506203510 74 350 3.5 7.0 0.00 0.00 0.00 74 1010.3
20260506202509 75 337 4.3 11.3 0.00 0.00 0.00 73 1010.3
20260506201510 77 321 4.3 12.2 0.00 0.00 0.00 72 1010.0
20260506200509 78 311 1.7 7.0 0.00 0.00 0.00 73 1009.6
20260506200009 79 340 1.7 7.0 0.00 0.00 0.00 73 1009.6
20260506195510 79 169 1.7 3.5 0.00 0.00 0.00 73 1009.7
20260506195009 79 110 3.5 3.5 0.00 0.00 0.00 73 1009.7
20260506194509 79 185 0.0 2.6 0.00 0.00 0.00 73 1009.7
20260506194009 79 103 1.7 3.5 0.00 0.00 0.00 74 1009.7
20260506193509 79 304 1.7 3.5 0.00 0.00 0.00 74 1009.7
20260506193009 79 130 0.9 3.5 0.00 0.00 0.00 74 1009.6
20260506192509 79 103 1.7 3.5 0.00 0.00 0.00 74 1009.7
20260506192009 79 331 0.9 3.5 0.00 0.00 0.00 75 1009.8
20260506191509 78 36 1.7 2.6 0.00 0.00 0.00 76 1009.7
20260506190509 77 9 6.1 7.8 0.00 0.00 0.00 76 1009.9
20260506185508 77 112 1.7 4.3 0.00 0.00 0.00 76 1009.8
20260506185008 77 201 1.7 4.3 0.00 0.00 0.00 76 1009.7
20260506184509 77 128 2.6 2.6 0.00 0.00 0.00 77 1009.8
20260506184009 76 304 1.7 2.6 0.00 0.00 0.00 77 1009.8
20260506183508 76 20 0.9 7.0 0.00 0.00 0.00 77 1009.9
20260506183009 76 338 1.7 7.0 0.00 0.00 0.00 76 1010.0
20260506182508 75 157 1.7 2.6 0.00 0.00 0.00 77 1010.0
20260506182008 75 329 0.9 2.6 0.00 0.00 0.00 77 1010.1
20260506181508 75 331 2.6 2.6 0.00 0.00 0.00 78 1009.9
20260506180008 73 36 1.7 7.0 0.00 0.00 0.00 79 1009.9
20260506175508 73 351 2.6 7.0 0.00 0.00 0.00 79 1010.0
20260506175008 72 110 0.9 3.5 0.00 0.00 0.00 79 1009.9
20260506174508 72 340 2.6 4.3 0.00 0.00 0.00 79 1010.0
20260506174008 72 355 4.3 4.3 0.00 0.00 0.00 79 1010.0
20260506173008 72 129 0.9 3.5 0.00 0.00 0.00 79 1010.1
20260506172508 71 360 1.7 3.5 0.00 0.00 0.00 80 1010.3
20260506172008 71 173 0.9 4.3 0.00 0.00 0.00 80 1010.2
20260506171508 70 281 0.9 6.1 0.00 0.00 0.00 80 1010.2
20260506171007 70 130 3.5 6.1 0.00 0.00 0.00 80 1010.3
20260506170507 70 154 0.0 3.5 0.00 0.00 0.00 81 1010.3
20260506170037 69 115 1.7 4.3 0.00 0.00 0.00 81 1010.3
20260506165537 68 161 1.7 4.3 0.00 0.00 0.00 82 1010.4
20260506165037 68 159 3.5 9.6 0.00 0.00 0.00 81 1010.4
20260506164037 68 165 1.7 7.8 0.00 0.00 0.00 81 1011.0
20260506163537 68 38 2.6 7.8 0.00 0.00 0.00 81 1011.2
20260506163037 69 296 3.5 5.2 0.00 0.00 0.00 81 1011.2
20260506162537 70 355 1.7 7.0 0.00 0.00 0.00 80 1011.3
20260506162037 71 360 1.7 7.0 0.00 0.00 0.00 79 1011.3
20260506161537 73 311 1.7 6.1 0.00 0.00 0.00 79 1011.3
20260506161037 76 351 0.9 5.2 0.00 0.00 0.00 79 1011.1
20260506160537 78 59 2.6 2.6 0.00 0.00 0.00 79 1011.0
20260506155537 79 127 0.0 0.9 0.00 0.00 0.00 81 1010.6
20260506154537 79 108 0.0 1.7 0.00 0.00 0.00 81 1010.4
20260506154037 79 91 0.0 1.7 0.00 0.00 0.00 81 1010.3
20260506152536 78 129 0.0 1.7 0.00 0.00 0.00 81 1009.7
20260506152037 78 129 0.9 1.7 0.00 0.00 0.00 81 1009.7
20260506151536 78 129 0.0 0.9 0.00 0.00 0.00 81 1009.7
20260506151037 78 129 0.0 0.9 0.00 0.00 0.00 81 1009.5
20260506150036 78 105 0.9 1.7 0.00 0.00 0.00 81 1009.4
20260506145037 78 128 0.0 1.7 0.00 0.00 0.00 81 1009.1
20260506144536 78 128 0.9 3.5 0.00 0.00 0.00 81 1009.1
20260506144036 78 132 0.9 3.5 0.00 0.00 0.00 81 1009.0
20260506143536 78 99 0.9 0.9 0.00 0.00 0.00 81 1008.9
20260506143036 77 119 0.0 1.7 0.00 0.00 0.00 81 1008.8
20260506141536 77 159 0.0 0.0 0.00 0.00 0.00 81 1008.9
20260506140536 77 159 0.0 0.0 0.00 0.00 0.00 81 1009.1
20260506140036 77 159 0.0 0.0 0.00 0.00 0.00 81 1008.9
20260506135036 77 159 0.0 0.0 0.00 0.00 0.00 81 1008.3
20260506134536 77 159 0.0 0.0 0.00 0.00 0.00 81 1008.3
20260506134037 77 210 0.0 0.0 0.00 0.00 0.00 81 1008.3
20260506133536 77 101 0.0 3.5 0.00 0.00 0.00 81 1008.2
20260506133036 77 215 0.9 3.5 0.00 0.00 0.00 81 1008.1
20260506132535 77 144 1.7 4.3 0.00 0.00 0.00 81 1008.2
20260506132036 77 178 1.7 4.3 0.00 0.00 0.00 81 1008.2
20260506131536 77 117 0.0 2.6 0.00 0.00 0.00 81 1008.2
20260506131036 77 114 2.6 2.6 0.00 0.00 0.00 81 1008.1
20260506130036 76 138 0.0 3.5 0.00 0.00 0.00 81 1008.0
20260506125535 76 107 1.7 3.5 0.00 0.00 0.00 81 1008.0
20260506125035 76 108 1.7 2.6 0.00 0.00 0.00 81 1008.0
20260506124036 76 128 1.7 3.5 0.00 0.00 0.00 82 1007.9
20260506123535 76 134 0.9 1.7 0.00 0.00 0.00 82 1007.9
20260506123035 76 122 0.0 1.7 0.00 0.00 0.00 82 1008.0
20260506122535 76 122 0.0 1.7 0.00 0.00 0.00 82 1008.0
20260506122035 76 122 0.0 0.9 0.00 0.00 0.00 81 1008.0
20260506121535 76 155 0.9 0.9 0.00 0.00 0.00 81 1008.0
20260506121035 76 162 0.0 0.9 0.00 0.00 0.00 81 1007.9
20260506120535 76 162 0.9 0.9 0.00 0.00 0.00 81 1007.9
20260506120035 76 124 0.0 2.6 0.00 0.00 0.00 81 1007.8
20260506115535 76 112 1.7 2.6 0.00 0.00 0.00 81 1007.8
20260506115035 76 129 0.0 0.0 0.00 0.00 0.00 81 1007.8
20260506114535 76 176 0.0 1.7 0.00 0.00 0.00 81 1007.8
20260506114034 76 145 0.0 1.7 0.00 0.00 0.00 82 1007.8
20260506113534 76 179 0.0 2.6 0.00 0.00 0.00 82 1007.9
20260506112534 76 133 0.0 3.5 0.00 0.00 0.00 82 1007.8
20260506112034 76 157 0.0 0.9 0.00 0.00 0.00 82 1007.9
20260506111534 76 157 0.0 1.7 0.00 0.00 0.00 82 1007.9
20260506111034 76 157 0.0 2.6 0.00 0.00 0.00 82 1007.8
20260506110534 76 128 0.0 2.6 0.00 0.00 0.00 82 1007.8
20260506110034 76 156 1.7 2.6 0.00 0.00 0.00 82 1007.8
20260506105534 76 146 2.6 2.6 0.00 0.00 0.00 82 1007.8
20260506105033 76 132 0.0 0.9 0.00 0.00 0.00 82 1007.7
20260506104533 76 132 0.0 3.5 0.00 0.00 0.00 82 1007.7
20260506104033 76 148 0.0 3.5 0.00 0.00 0.00 82 1007.7
20260506103533 76 165 0.0 2.6 0.00 0.00 0.00 82 1007.5
20260506103034 76 226 2.6 2.6 0.00 0.00 0.00 82 1007.4
20260506102533 76 140 0.0 1.7 0.00 0.00 0.00 82 1007.4
20260506102034 76 148 0.0 1.7 0.00 0.00 0.00 82 1007.3
20260506101533 76 119 0.9 1.7 0.00 0.00 0.00 82 1007.3
20260506101033 76 128 0.9 2.6 0.00 0.00 0.00 82 1007.3
20260506095533 76 251 1.7 4.3 0.00 0.00 0.00 82 1007.1
20260506094533 76 182 0.9 3.5 0.00 0.00 0.00 82 1007.0
20260506094033 76 242 0.9 3.5 0.00 0.00 0.00 82 1006.9
20260506093533 76 195 1.7 3.5 0.00 0.00 0.00 82 1006.9
20260506093033 76 96 0.0 3.5 0.00 0.00 0.00 82 1006.8
20260506091533 76 88 2.6 4.3 0.00 0.00 0.00 82 1006.6
20260506091033 76 225 1.7 3.5 0.00 0.00 0.00 82 1006.6
20260506090533 76 213 0.0 7.0 0.00 0.00 0.00 82 1006.7
20260506090033 76 206 1.7 7.0 0.00 0.00 0.00 82 1006.7
20260506085032 76 234 1.7 3.5 0.00 0.00 0.00 82 1006.7
20260506084032 76 157 1.7 6.1 0.00 0.00 0.00 82 1006.7
20260506083532 76 176 2.6 6.1 0.00 0.00 0.00 82 1006.6
20260506083032 77 204 0.0 8.7 0.00 0.00 0.00 82 1006.7
20260506082532 77 90 5.2 8.7 0.00 0.00 0.00 82 1006.7
20260506082032 77 132 1.7 4.3 0.00 0.00 0.00 82 1006.7
20260506081532 77 124 2.6 7.8 0.00 0.00 0.00 82 1006.7
20260506081032 77 127 2.6 7.8 0.00 0.00 0.00 82 1006.7
20260506073031 77 112 7.0 7.0 0.00 0.00 0.00 82 1006.8
20260506072531 77 127 0.9 4.3 0.00 0.00 0.00 82 1007.1
20260506072031 77 227 3.5 8.7 0.00 0.00 0.00 82 1007.1
20260506071531 77 272 5.2 8.7 0.00 0.00 0.00 82 1007.1
20260506071031 77 79 0.9 8.7 0.00 0.00 0.00 82 1007.2
20260506070531 77 115 8.7 8.7 0.00 0.00 0.00 82 1007.2
20260506062031 77 140 1.7 5.2 0.00 0.00 0.00 82 1007.1
20260506061531 77 229 3.5 5.2 0.00 0.00 0.00 82 1007.1
20260506061031 77 165 1.7 4.3 0.00 0.00 0.00 82 1007.3
20260506050530 77 101 1.7 5.2 0.00 0.00 0.00 81 1007.3
20260506045030 78 254 0.9 2.6 0.00 0.00 0.00 81 1007.2
20260506044530 78 146 0.0 4.3 0.00 0.00 0.00 81 1007.2
20260506044030 78 126 2.6 4.3 0.00 0.00 0.00 81 1007.1
20260506043530 78 220 2.6 4.3 0.00 0.00 0.00 81 1007.2
20260506043030 78 159 1.7 7.0 0.00 0.00 0.00 81 1007.1
20260506042030 78 103 5.2 6.1 0.00 0.00 0.00 81 1007.0
20260506041530 78 192 0.9 6.1 0.00 0.00 0.00 81 1007.1
20260506041030 78 138 0.9 1.7 0.00 0.00 0.00 80 1007.1
20260506040030 78 146 0.9 1.7 0.00 0.00 0.00 80 1006.8
20260506035530 78 167 0.9 1.7 0.00 0.00 0.00 80 1006.7
20260506035029 78 110 0.0 2.6 0.00 0.00 0.00 80 1006.7
20260506034530 78 132 1.7 6.1 0.00 0.00 0.00 80 1006.7
20260506034029 78 135 3.5 6.1 0.00 0.00 0.00 80 1006.6
20260506033029 78 147 1.7 3.5 0.00 0.00 0.00 80 1006.5
20260506032529 79 113 2.6 3.5 0.00 0.00 0.00 80 1006.4
20260506032029 79 149 0.9 3.5 0.00 0.00 0.00 80 1006.4
20260506031029 79 209 0.9 3.5 0.00 0.00 0.00 79 1006.2
20260506030029 79 153 1.7 3.5 0.00 0.00 0.00 79 1006.0
20260506025529 79 93 0.9 3.5 0.00 0.00 0.00 79 1005.9
20260506025029 79 196 0.9 1.7 0.00 0.00 0.00 79 1005.8
20260506024029 80 107 1.7 2.6 0.00 0.00 0.00 78 1005.8
20260506023529 80 282 0.0 4.3 0.00 0.00 0.00 78 1005.6
20260506023029 80 177 0.9 6.1 0.00 0.00 0.00 78 1005.5
20260506022029 80 105 0.0 3.5 0.00 0.00 0.00 78 1005.2
20260506021529 81 165 3.5 3.5 0.00 0.00 0.00 77 1005.2
20260506021029 81 146 0.0 7.0 0.00 0.00 0.00 77 1005.2
20260506020029 81 139 1.7 1.7 0.00 0.00 0.00 77 1005.2
20260506015529 81 169 0.0 3.5 0.00 0.00 0.00 76 1005.0
20260506015029 81 217 1.7 3.5 0.00 0.00 0.00 76 1004.9
20260506014529 81 159 0.9 3.5 0.00 0.00 0.00 76 1004.8
20260506014029 81 123 0.9 3.5 0.00 0.00 0.00 76 1004.9
20260506013528 81 161 3.5 3.5 0.00 0.00 0.00 76 1004.8
20260506013028 82 150 2.6 3.5 0.00 0.00 0.00 75 1005.0
20260506012028 82 159 0.0 1.7 0.00 0.00 0.00 75 1005.1
20260506011528 82 123 1.7 1.7 0.00 0.00 0.00 75 1005.1
20260506011029 82 157 0.0 1.7 0.00 0.00 0.00 75 1005.1
20260506010528 83 132 0.0 1.7 0.00 0.00 0.00 74 1005.0
20260506010028 83 188 0.9 1.7 0.00 0.00 0.00 74 1005.0
20260506005028 83 121 0.0 2.6 0.00 0.00 0.00 74 1004.9
20260506004528 83 121 0.0 2.6 0.00 0.00 0.00 74 1004.8
20260506003528 83 152 0.0 1.7 0.00 0.00 0.00 74 1004.8
20260506003027 84 117 0.0 1.7 0.00 0.00 0.00 74 1004.8
20260506002028 84 153 1.7 6.1 0.00 0.00 0.00 73 1004.7
20260506001528 84 220 0.9 6.1 0.00 0.00 0.00 73 1004.5
20260506001027 84 184 2.6 5.2 0.00 0.00 0.00 73 1004.6
20260506000027 84 136 2.6 2.6 0.00 0.00 0.00 73 1004.5
20260505235527 84 173 2.6 4.3 0.00 0.00 0.00 73 1004.4
20260505235027 84 157 0.9 4.3 0.00 0.00 0.00 73 1004.5
20260505233527 84 133 0.9 2.6 0.00 0.00 0.00 73 1004.4
20260505233027 84 178 1.7 2.6 0.00 0.00 0.00 73 1004.4
20260505232527 84 213 0.0 3.5 0.00 0.00 0.00 72 1004.4
20260505231526 84 242 0.9 6.1 0.00 0.00 0.00 73 1004.3
20260505231027 84 213 2.6 6.1 0.00 0.00 0.00 72 1004.4